全球星 M047星 (GLOBALSTAR M047)

导读

GLOBALSTAR M047是美国全球星(GLOBALSTAR)系统的第一代低轨移动通信卫星,于1999年6月10日发射入轨。作为全球覆盖的低轨星座组成部分,它基于劳拉公司LS-400平台建造,运行在高度约1414千米的倾斜轨道,提供数字语音、数据、传真等移动通信服务,是地面通信网络的全球延伸补充,助力实现广域无缝的移动通信覆盖。

Basic Information
目录编号:
25772
目录名称:
GLOBALSTAR M047
国际标识:
1999-031C
轨道中心:
EARTH
卫星名称:
全球星 M047星
卫星全名:
全球星 M047星 (GLOBALSTAR M047)
卫星状态:
在轨 (已飞行9959 天)
发射日期:
1999-06-10 UTC
国别 :
(GLOB)
星等 :
--
This satellite is enrolled in the Space Conjunction Data Service (SCDS) and the current flight risk assessment level is: No High Risk
Orbit Information
数据来源 国际轨道数据 AOE轨道数据
星历时间 2026-09-15T12:43:41+0800
18小时前
查看轨道信息
2026-09-14T23:00:00+0800
1天前
查看轨道信息
半长轴 8378.91km 8378.912km
偏心率 0.0016632 0.0016625
轨道倾角 51.981° 51.981°
近地点辐角 326.237° 326.119°
升交点赤经 196.322° 197.672°
平近点角 33.737° 222.003°
近地点 1986.837km 1986.845km
远地点 2014.709km 2014.705km
周期 127.216分钟 127.216分钟
每日圈数 11.319351 11.319347
Detailed Information
固有亮度:
5
最大亮度:
7.9
平衡模式:
三轴稳定
覆盖范围:
全球
运营商:
全球星公司
运营商所在国:
美国
使用方式:
暂无
Satellite Introduction
全球星星座由48颗卫星加8颗备份星组成。这些卫星分布在8个倾角为52度的圆形轨道平面上,每个轨道平面6颗卫星,另有1 颗备用星。轨道高度约为1414km,传输时延和处理时延小于300ms,整个系统的覆盖区为南北纬70度以内的地区。该卫星已退役。
2D Orbit Map
3D Orbit Map
Orbit Altitude Analysis Chart
Orbit Inclination Analysis Chart
Orbit Comprehensive Analysis Chart
View Comprehensive Chart
Miss Distance Evolution Trend with All Objects Subscribe to Flight Safety Assessment
Collision Probability Evolution Trend with All Objects Subscribe to Flight Safety Assessment